Regional Weather Roundup
Issued by NWS

Home | Current Version | Previous Version | Graphics & Text | Print | Product List | Glossary On
Versions: 1 2 3 4 5 6 7 8 9 10 11 12 13 14 15 16 17 18 19 20 21 22 23 24 25 26 27
000
ASUS45 KCYS 032110
RWRWY

WYOMING REGIONAL WEATHER ROUNDUP
NATIONAL WEATHER SERVICE CHEYENNE WY
300 PM MDT TUE MAY 03 2016

NOTE:  "FAIR" INDICATES FEW OR NO CLOUDS BELOW 12,000 FEET
WITH NO SIGNIFICANT WEATHER AND/OR OBSTRUCTIONS TO VISIBILITY.

WYZ001-032200-
YELLOWSTONE NATIONAL PARK

CITY           SKY/WX    TMP DP  RH WIND       PRES   REMARKS
LK YELLOWSTONE   N/A     53  20  27 VRB3      30.35S
W YELLOWSTONE  NOT AVBL

$$
WYZ002>013-054>058-071-098>099-032200-
NORTHERN WYOMING

CITY           SKY/WX    TMP DP  RH WIND       PRES   REMARKS
JACKSON        FAIR      66  19  16 NW13      30.26F
CODY           FAIR      70  30  23 SE3       30.18S
GREYBULL       FAIR      75  25  15 VRB3      30.13F
WORLAND        FAIR      70  34  26 VRB3      30.16F
SHERIDAN       FAIR      73  39  29 VRB5      30.15F
BUFFALO        FAIR      70  33  25 NE3       30.20S
GILLETTE       FAIR      69  40  34 NW9       30.16S
HULETT         FAIR      70  34  26 N12G17    30.16S
NEWCASTLE      FAIR      72  30  21 N15       30.13S

$$
WYZ014>020-022>026-101>103-032200-
CENTRAL WYOMING

CITY           SKY/WX    TMP DP  RH WIND       PRES   REMARKS
BIG PINEY      FAIR      66  21  18 VRB7      30.28F
PINEDALE       FAIR      64  21  19 S3        30.28F
DUBOIS         FAIR      64  18  16 E17G23    30.25S
LANDER         FAIR      67  29  24 CALM      30.21F
RIVERTON       FAIR      67  31  26 N6        30.23S
CASPER         FAIR      65  31  28 VRB6      30.22S
DOUGLAS        FAIR      68  36  30 NW6G17    30.20S

$$
WYZ021-027>030-104>119-032200-
SOUTHERN WYOMING

CITY           SKY/WX    TMP DP  RH WIND       PRES   REMARKS
EVANSTON       FAIR      64  21  19 VRB7      30.29S
KEMMERER         N/A     64  18  16 SW5       30.30F
FORT BRIDGER   CLEAR     64  18  16 SE5       30.33S
ROCK SPRINGS   FAIR      63  21  20 W7        30.29S
DIXON          MOCLDY    65  29  25 CALM      30.29S
RAWLINS        FAIR      64  27  24 N10       30.28S
SARATOGA       FAIR      59  28  31 NW9       30.30S
LARAMIE        FAIR      54  32  43 NW9       30.29S
CHEYENNE       FAIR      60  32  34 NW16      30.24R
TORRINGTON     FAIR      70  34  26 NW14G21   30.12F
PINE BLUFFS    FAIR      64  34  32 N22G29    30.18F

$$




USA.gov is the U.S. government's official web portal to all federal, state and local government web resources and services.